Overview Statistics Trail Chart Weather Telemetry Raw packets
 

This is the latest recevied weather packets stored in our database for station/object 4S6DRJ-13. If no packets are shown the sender has not sent any weather packets the latest 10 day(s).

<< 506 507 508 509 510 511 512 >>
Time Temp. Humidity Pressure Rain* Wind** Luminosity Snow
1787675839 27.78° C 84% 1012 hPa 0 mm 2.24 m/s, 237° 0 W/m² -
1787675777 27.78° C 84% 1011.8 hPa 0 mm 0.89 m/s, 188° 0 W/m² -
1787675716 27.78° C 84% 1011.9 hPa 0 mm 0.45 m/s, 228° 0 W/m² -
1787675655 27.78° C 83% 1011.7 hPa 0 mm 1.34 m/s, 239° 0 W/m² -
1787675594 27.78° C 83% 1011.7 hPa 0 mm 1.34 m/s, 187° 0 W/m² -
1787675533 27.78° C 83% 1011.9 hPa 0 mm 3.13 m/s, 227° 0 W/m² -
1787675472 27.78° C 83% 1011.8 hPa 0 mm 1.79 m/s, 262° 0 W/m² -
1787675411 27.78° C 83% 1011.7 hPa 0 mm 2.68 m/s, 219° 0 W/m² -
1787675350 27.78° C 83% 1011.7 hPa 0 mm 1.79 m/s, 168° 0 W/m² -
1787675289 27.78° C 83% 1011.7 hPa 0 mm 1.34 m/s, 179° 0 W/m² -
1787675228 27.78° C 83% 1011.7 hPa 0 mm 2.24 m/s, 61° 0 W/m² -
1787675167 27.78° C 83% 1011.7 hPa 0 mm 2.24 m/s, 254° 0 W/m² -
1787675106 27.78° C 83% 1011.7 hPa 0 mm 0.89 m/s, 259° 0 W/m² -
1787675045 27.78° C 83% 1011.7 hPa 0 mm 1.34 m/s, 226° 0 W/m² -
1787674984 27.78° C 83% 1011.6 hPa 0 mm 0.89 m/s, 200° 0 W/m² -
1787674923 27.78° C 83% 1011.7 hPa 0 mm 0.45 m/s, 238° 0 W/m² -
1787674862 27.78° C 83% 1011.7 hPa 0 mm 0.45 m/s, 231° 0 W/m² -
1787674803 27.78° C 83% 1011.8 hPa 0 mm 0.45 m/s, 183° 0 W/m² -
1787674741 27.78° C 83% 1011.9 hPa 0 mm 0.45 m/s, 115° 0 W/m² -
1787674680 27.78° C 83% 1011.7 hPa 0 mm 0.89 m/s, 309° 0 W/m² -
1787674619 27.78° C 83% 1011.9 hPa 0 mm 0.45 m/s, 209° 0 W/m² -
1787674557 27.78° C 83% 1011.7 hPa 0 mm 0.45 m/s, 234° 0 W/m² -
1787674497 27.78° C 83% 1011.5 hPa 0 mm 1.34 m/s, 245° 0 W/m² -
1787674436 27.78° C 83% 1011.7 hPa 0 mm 1.34 m/s, 293° 0 W/m² -
1787674374 27.78° C 83% 1011.9 hPa 0 mm 0.45 m/s, 239° 0 W/m² -

* Rain latest hour (hover to see other rain measurements)
** Current wind speed in m/s (hover to see current wind gust speed)